Sigfox identifier Datetime Temperature Humidity SNR
002F8DE8 2019-04-23 15:03:49 16.7 29 23.9
002F8DE8 2019-04-23 14:29:44 16.7 29 23.8
002F8DE8 2019-04-23 13:55:39 16.5 29 23.9
002F8DE8 2019-04-23 13:21:35 16.5 29 23.7
002F8DE8 2019-04-23 12:47:30 16.3 29 23.6
002F8DE8 2019-04-23 12:13:26 16.2 29 23.4
002F8DE8 2019-04-23 11:39:22 16 29 22.8
002F8DE8 2019-04-23 11:05:17 16 28 22.8
002F8DE8 2019-04-23 10:31:13 16 28 22.6
002F8DE8 2019-04-23 09:57:09 15.8 28 22.6
002F8DE8 2019-04-23 09:23:06 15.9 28 22.5
002F8DE8 2019-04-23 08:49:02 15.8 28 22.5
002F8DE8 2019-04-23 08:14:59 15.8 28 22.4
002F8DE8 2019-04-23 07:40:55 15.9 28 22.4
002F8DE8 2019-04-23 07:06:51 16 28 22.4
002F8DE8 2019-04-23 06:32:48 15.8 28 22.3
002F8DE8 2019-04-23 05:58:44 15.8 28 22.3
002F8DE8 2019-04-23 05:24:40 15.8 28 22.4
002F8DE8 2019-04-23 04:50:36 15.8 28 22.5
002F8DE8 2019-04-23 04:16:33 15.8 28 22.6
002F8DE8 2019-04-23 03:42:29 15.8 28 22.5
002F8DE8 2019-04-23 03:08:24 15.8 28 22.7
002F8DE8 2019-04-23 02:34:21 15.8 28 22.7
002F8DE8 2019-04-23 02:00:17 15.8 28 22.7
002F8DE8 2019-04-23 01:26:13 15.8 28 22.8
002F8DE8 2019-04-23 00:52:09 15.8 28 22.8
002F8DE8 2019-04-23 00:18:05 15.9 28 22.8
002F8DE8 2019-04-22 23:44:01 15.9 28 22.8
002F8DE8 2019-04-22 23:09:57 15.9 28 22.8
002F8DE8 2019-04-22 22:35:54 15.9 28 22.9
002F8DE8 2019-04-22 22:01:51 16 28 22.8
002F8DE8 2019-04-22 21:27:49 16 28 22.7
002F8DE8 2019-04-22 20:53:45 16 28 22.6
002F8DE8 2019-04-22 20:19:41 16 28 22.6
002F8DE8 2019-04-22 19:45:36 16.2 28 22.6
002F8DE8 2019-04-22 19:11:32 16.3 28 22.6
002F8DE8 2019-04-22 18:37:28 16.3 28 22.5
002F8DE8 2019-04-22 18:03:25 16.3 28 22.6
002F8DE8 2019-04-22 17:29:21 16.3 28 22.7
002F8DE8 2019-04-22 16:55:17 16.3 28 22.6
002F8DE8 2019-04-22 16:21:13 16.3 28 22.6
002F8DE8 2019-04-22 15:47:09 16.2 28 22.7
002F8DE8 2019-04-22 15:13:05 16.2 28 22.7
002F8DE8 2019-04-22 14:39:01 16 28 22.7
002F8DE8 2019-04-22 14:04:57 16 27 22.6
002F8DE8 2019-04-22 13:30:55 16 27 22.6
002F8DE8 2019-04-22 12:56:49 16 27 22.6
002F8DE8 2019-04-22 12:22:44 16 27 22.6
002F8DE8 2019-04-22 11:48:41 16 27 22.6
002F8DE8 2019-04-22 11:14:38 16 27 22.6
002F8DE8 2019-04-22 10:40:34 16 27 22.6
002F8DE8 2019-04-22 10:06:31 15.9 27 22.6
002F8DE8 2019-04-22 09:32:28 15.8 27 22.6
002F8DE8 2019-04-22 08:58:24 15.8 27 23.4
002F8DE8 2019-04-22 08:24:21 15.8 27 23.3
002F8DE8 2019-04-22 07:50:17 15.9 27 23.3
002F8DE8 2019-04-22 07:16:13 15.9 27 23.3
002F8DE8 2019-04-22 06:42:08 16 27 23.3
002F8DE8 2019-04-22 06:08:02 16 27 23.4
002F8DE8 2019-04-22 05:33:57 16 27 24
002F8DE8 2019-04-22 04:59:52 15.8 27 24
002F8DE8 2019-04-22 04:25:48 15.8 27 24.1
002F8DE8 2019-04-22 03:51:44 15.8 27 24.1
002F8DE8 2019-04-22 03:17:40 15.8 27 24.1
002F8DE8 2019-04-22 02:43:36 15.9 27 24.1
002F8DE8 2019-04-22 02:09:30 15.8 27 24.1
002F8DE8 2019-04-22 01:35:23 15.8 27 24.1
002F8DE8 2019-04-22 01:01:17 15.7 27 24.1
002F8DE8 2019-04-22 00:27:12 15.8 27 24.1
002F8DE8 2019-04-21 23:53:08 15.8 27 24.2
002F8DE8 2019-04-21 23:19:04 15.6 27 24.3
002F8DE8 2019-04-21 22:44:59 15.6 27 24.2
002F8DE8 2019-04-21 22:10:56 15.7 27 24.2
002F8DE8 2019-04-21 21:36:52 15.8 27 24.1
002F8DE8 2019-04-21 21:02:47 15.8 27 24.2
002F8DE8 2019-04-21 20:28:42 15.8 27 24.1
002F8DE8 2019-04-21 19:54:36 15.8 27 24.2
002F8DE8 2019-04-21 19:20:31 15.8 27 24.2
002F8DE8 2019-04-21 18:46:25 15.7 27 23.7
002F8DE8 2019-04-21 18:12:22 15.7 27 23.7
002F8DE8 2019-04-21 17:38:18 15.7 27 23.7
002F8DE8 2019-04-21 17:04:15 15.6 27 23.7
002F8DE8 2019-04-21 16:30:11 15.6 27 23.6
002F8DE8 2019-04-21 15:56:07 15.6 26 23.6
002F8DE8 2019-04-21 15:22:03 15.6 26 22.9
002F8DE8 2019-04-21 14:47:58 15.6 26 22.8
002F8DE8 2019-04-21 14:13:54 15.6 26 22.7
002F8DE8 2019-04-21 13:39:50 15.6 26 22.7
002F8DE8 2019-04-21 13:05:44 15.6 26 22.8
002F8DE8 2019-04-21 12:31:40 15.6 26 22.7
002F8DE8 2019-04-21 11:57:36 15.6 26 22.7
002F8DE8 2019-04-21 11:23:32 15.6 26 22.6
002F8DE8 2019-04-21 10:49:27 15.6 26 22.7
002F8DE8 2019-04-21 10:15:23 15.7 26 22.7
002F8DE8 2019-04-21 09:41:19 15.8 26 22.6
002F8DE8 2019-04-21 09:07:15 15.8 26 22.5
002F8DE8 2019-04-21 08:33:10 15.8 26 22.6
002F8DE8 2019-04-21 07:59:07 15.9 26 22.7
002F8DE8 2019-04-21 07:25:03 15.8 26 22.9
002F8DE8 2019-04-21 06:50:59 16 26 22.8
002F8DE8 2019-04-21 06:16:55 15.8 26 22.8
002F8DE8 2019-04-21 05:42:51 15.8 26 22.8
002F8DE8 2019-04-21 05:08:48 15.9 26 22.8
002F8DE8 2019-04-21 04:34:44 15.8 26 22.7
002F8DE8 2019-04-21 04:00:41 15.8 26 22.6
002F8DE8 2019-04-21 03:26:37 15.8 26 22.7
002F8DE8 2019-04-21 02:52:37 15.8 26 22.8
002F8DE8 2019-04-21 02:18:28 15.8 26 22.8
002F8DE8 2019-04-21 01:44:24 15.8 26 22.8
002F8DE8 2019-04-21 01:10:19 15.8 26 22.8
002F8DE8 2019-04-21 00:36:14 15.8 26 22.8
002F8DE8 2019-04-21 00:02:10 15.8 26 22.8
002F8DE8 2019-04-20 23:28:06 15.6 26 22.8
002F8DE8 2019-04-20 22:54:01 15.6 26 22.8
002F8DE8 2019-04-20 22:19:56 15.7 26 22.8
002F8DE8 2019-04-20 21:45:52 15.7 26 22.7
002F8DE8 2019-04-20 21:11:49 15.7 26 22.7
002F8DE8 2019-04-20 20:37:44 15.7 26 22.6
002F8DE8 2019-04-20 20:03:41 15.8 26 22.7
002F8DE8 2019-04-20 19:29:37 15.8 25 22.6
002F8DE8 2019-04-20 18:55:34 15.8 25 22.5
002F8DE8 2019-04-20 18:21:31 15.8 25 22.4
002F8DE8 2019-04-20 17:47:28 15.8 25 22.4
002F8DE8 2019-04-20 17:13:24 15.7 25 22.3
002F8DE8 2019-04-20 16:39:20 15.7 25 22.3
002F8DE8 2019-04-20 16:05:16 15.8 25 22.3
002F8DE8 2019-04-20 15:31:12 15.8 25 22.3
002F8DE8 2019-04-20 14:57:08 15.7 25 22.5
002F8DE8 2019-04-20 14:23:06 15.7 25 22.4
002F8DE8 2019-04-20 13:49:02 15.6 25 22.4
002F8DE8 2019-04-20 13:14:56 15.7 25 22.5
002F8DE8 2019-04-20 12:40:52 15.7 25 22.5
002F8DE8 2019-04-20 12:06:46 15.7 25 22.3
002F8DE8 2019-04-20 11:32:42 15.8 25 22.3
002F8DE8 2019-04-20 10:58:37 15.8 25 22.4
002F8DE8 2019-04-20 10:24:32 15.8 25 22.4
002F8DE8 2019-04-20 09:50:27 15.8 25 22.3
002F8DE8 2019-04-20 09:16:23 15.8 25 22.3
002F8DE8 2019-04-20 08:42:18 15.8 25 22.2
002F8DE8 2019-04-20 08:08:13 15.8 25 22.3
002F8DE8 2019-04-20 07:34:09 16 25 22.3
002F8DE8 2019-04-20 07:00:02 16 25 22.4
002F8DE8 2019-04-20 06:25:57 15.9 25 22.4
002F8DE8 2019-04-20 05:51:52 15.9 25 22.4
002F8DE8 2019-04-20 05:17:47 15.9 25 22.5
002F8DE8 2019-04-20 04:43:43 15.8 25 22.5
002F8DE8 2019-04-20 04:09:39 15.9 25 22.6
002F8DE8 2019-04-20 03:35:34 16 25 22.6
002F8DE8 2019-04-20 03:01:32 16 25 22.6
002F8DE8 2019-04-20 02:27:25 16 25 22.5
002F8DE8 2019-04-20 01:53:19 16 25 22.6
002F8DE8 2019-04-20 01:19:13 16 25 22.6
002F8DE8 2019-04-20 00:45:08 16.1 25 22.5
002F8DE8 2019-04-20 00:11:03 16.2 25 22.6
002F8DE8 2019-04-19 23:36:57 16.3 24 22.6
002F8DE8 2019-04-19 23:02:52 16.3 24 22.6
002F8DE8 2019-04-19 22:28:51 16.3 24 22.7
002F8DE8 2019-04-19 21:54:42 16.3 24 22.7
002F8DE8 2019-04-19 21:20:38 16.3 24 22.6
002F8DE8 2019-04-19 20:46:34 16.3 24 22.6
002F8DE8 2019-04-19 20:12:30 16.5 24 22.6
002F8DE8 2019-04-19 19:38:26 16.5 24 22.6
002F8DE8 2019-04-19 19:04:22 16.5 24 22.6
002F8DE8 2019-04-19 18:30:19 16.5 24 22.5
002F8DE8 2019-04-19 17:56:14 16.5 24 22.4
002F8DE8 2019-04-19 17:22:09 16.5 24 22.4
002F8DE8 2019-04-19 16:48:04 16.5 24 22.4
002F8DE8 2019-04-19 16:14:00 16.4 24 22.3
002F8DE8 2019-04-19 15:39:56 16.3 24 22.2
002F8DE8 2019-04-19 15:05:51 16.3 24 22.2
002F8DE8 2019-04-19 14:31:48 16.3 24 22.1
002F8DE8 2019-04-19 13:57:44 16.3 24 22
002F8DE8 2019-04-19 13:23:40 16.3 24 22
002F8DE8 2019-04-19 12:49:35 16.2 24 22.1
002F8DE8 2019-04-19 12:15:29 16.1 24 22
002F8DE8 2019-04-19 11:41:23 16 24 22
002F8DE8 2019-04-19 11:07:18 16 24 22
002F8DE8 2019-04-19 10:33:14 16 24 22
002F8DE8 2019-04-19 09:59:09 16 24 21.9
002F8DE8 2019-04-19 09:25:05 16 24 21.9
002F8DE8 2019-04-19 08:50:59 16 24 21.9
002F8DE8 2019-04-19 08:16:54 16 24 22
002F8DE8 2019-04-19 07:42:50 16 24 22
002F8DE8 2019-04-19 07:08:45 16 24 22.1
002F8DE8 2019-04-19 06:34:40 16 24 22
002F8DE8 2019-04-19 06:00:36 16.1 24 22
002F8DE8 2019-04-19 05:26:31 16.1 24 22.4
002F8DE8 2019-04-19 04:52:27 16.1 24 22.4
002F8DE8 2019-04-19 04:18:22 16.1 23 22.7
002F8DE8 2019-04-19 03:44:16 16.3 23 22.7
002F8DE8 2019-04-19 03:10:12 16.3 23 22.7
002F8DE8 2019-04-19 02:36:08 16.1 23 22.6
002F8DE8 2019-04-19 02:02:03 16.3 23 22.8
002F8DE8 2019-04-19 01:27:57 16.3 23 22.8
002F8DE8 2019-04-19 00:53:51 16.5 23 22.8
002F8DE8 2019-04-19 00:19:46 16.5 23 23
002F8DE8 2019-04-18 23:45:40 16.5 23 23.1
002F8DE8 2019-04-18 23:11:35 16.7 23 23.3
002F8DE8 2019-04-18 22:37:30 16.7 23 23.4
002F8DE8 2019-04-18 22:03:25 16.7 23 23.5
002F8DE8 2019-04-18 21:29:21 16.8 23 23.5
002F8DE8 2019-04-18 20:55:17 16.8 23 23.4
002F8DE8 2019-04-18 20:21:14 16.9 23 23.4
002F8DE8 2019-04-18 19:47:10 16.9 23 23.4
002F8DE8 2019-04-18 19:13:06 16.9 23 23.3
002F8DE8 2019-04-18 18:39:02 16.9 23 23.4
002F8DE8 2019-04-18 18:04:57 16.9 23 23.3
002F8DE8 2019-04-18 17:30:53 16.9 23 23.3
002F8DE8 2019-04-18 16:56:49 16.9 23 23.3
002F8DE8 2019-04-18 16:22:45 16.8 23 23.1
002F8DE8 2019-04-18 15:48:40 16.7 23 23
002F8DE8 2019-04-18 15:14:34 16.7 23 22.8
002F8DE8 2019-04-18 14:40:28 16.5 23 22.8
002F8DE8 2019-04-18 14:06:21 16.5 23 22.8
002F8DE8 2019-04-18 13:32:17 16.5 23 22.9
002F8DE8 2019-04-18 12:58:11 16.4 23 22.8
002F8DE8 2019-04-18 12:24:07 16.4 23 22.8
002F8DE8 2019-04-18 11:50:01 16.4 23 22.8
002F8DE8 2019-04-18 11:15:56 16.4 22 22.7
002F8DE8 2019-04-18 10:41:51 16.5 22 22.4
002F8DE8 2019-04-18 10:07:45 16.3 23 22.2
002F8DE8 2019-04-18 09:33:38 16.3 22 21.9
002F8DE8 2019-04-18 08:59:32 16.3 22 21.8
002F8DE8 2019-04-18 08:25:26 16.4 22 21.7
002F8DE8 2019-04-18 07:51:21 16.5 22 21.7
002F8DE8 2019-04-18 07:17:20 16.5 22 21.8
002F8DE8 2019-04-18 06:43:10 16.5 22 21.7
002F8DE8 2019-04-18 06:09:04 16.4 22 22
002F8DE8 2019-04-18 05:34:58 16.3 22 22.1
002F8DE8 2019-04-18 05:00:52 16.3 22 22
002F8DE8 2019-04-18 04:26:45 16.3 22 22.1
002F8DE8 2019-04-18 03:52:39 16.3 22 22.4
002F8DE8 2019-04-18 03:18:33 16.3 22 22.3
002F8DE8 2019-04-18 02:44:27 16.3 22 22.3
002F8DE8 2019-04-18 02:10:21 16.3 22 23.1
002F8DE8 2019-04-18 01:36:15 16.5 22 23
002F8DE8 2019-04-18 01:02:10 16.5 22 23
002F8DE8 2019-04-18 00:28:04 16.7 22 23
002F8DE8 2019-04-17 23:53:59 16.8 22 22.9
002F8DE8 2019-04-17 23:19:53 16.9 22 22.8
002F8DE8 2019-04-17 22:45:48 16.9 22 22.7
002F8DE8 2019-04-17 22:11:42 16.9 22 22.6
002F8DE8 2019-04-17 21:37:37 16.9 22 22.6
002F8DE8 2019-04-17 21:03:33 16.8 22 22.6
002F8DE8 2019-04-17 20:29:28 16.7 21 22.6
002F8DE8 2019-04-17 19:55:22 16.7 21 22.6
002F8DE8 2019-04-17 19:21:18 16.7 21 22.6
002F8DE8 2019-04-17 18:47:12 16.7 21 22.6
002F8DE8 2019-04-17 18:13:07 16.7 21 22.5
002F8DE8 2019-04-17 17:39:02 16.7 21 22.5
002F8DE8 2019-04-17 17:04:57 16.7 21 22.5
002F8DE8 2019-04-17 16:30:52 16.7 21 22.5
002F8DE8 2019-04-17 15:56:47 16.5 21 22.1
002F8DE8 2019-04-17 15:22:41 16.5 21 21.9
002F8DE8 2019-04-17 14:48:36 16.7 21 22
002F8DE8 2019-04-17 14:14:31 16.7 21 21.9
002F8DE8 2019-04-17 13:40:25 16.8 21 21.5
002F8DE8 2019-04-17 13:06:19 16.9 21 21.5
002F8DE8 2019-04-17 12:32:13 16.9 21 21.5
002F8DE8 2019-04-17 11:58:06 16.9 21 20.2
002F8DE8 2019-04-17 11:24:00 16.9 21 20.4
002F8DE8 2019-04-17 10:49:53 16.8 21 20.2
002F8DE8 2019-04-17 10:15:46 16.8 21 20.1
002F8DE8 2019-04-17 09:41:41 16.9 21 20.1
002F8DE8 2019-04-17 09:07:35 16.9 21 20
002F8DE8 2019-04-17 08:33:29 17 20 19.9
002F8DE8 2019-04-17 07:59:23 17.1 20 19.8
002F8DE8 2019-04-17 07:25:17 17.3 21 19.7
002F8DE8 2019-04-17 06:51:10 17.5 21 19.7
002F8DE8 2019-04-17 06:17:04 17.5 21 19.8
002F8DE8 2019-04-17 05:42:58 17.6 21 20
002F8DE8 2019-04-17 05:08:53 17.8 20 19.8
002F8DE8 2019-04-17 04:34:47 17.8 20 19.6
002F8DE8 2019-04-17 04:00:42 17.8 20 19.4
002F8DE8 2019-04-17 03:26:37 17.8 20 19.2
002F8DE8 2019-04-17 02:52:32 18 20 19.1
002F8DE8 2019-04-17 02:18:25 18 20 18.9
002F8DE8 2019-04-17 01:44:20 18 20 18.8
002F8DE8 2019-04-17 01:10:14 18 20 18.6
002F8DE8 2019-04-17 00:36:10 18 20 18.2
002F8DE8 2019-04-17 00:02:04 18 20 18
002F8DE8 2019-04-16 23:27:59 18 20 17.9
002F8DE8 2019-04-16 22:53:53 17.9 20 17.7
002F8DE8 2019-04-16 22:19:48 18.2 20 17.4
002F8DE8 2019-04-16 21:45:42 18.5 20 17.6
002F8DE8 2019-04-16 21:11:37 18.7 20 17.3
002F8DE8 2019-04-16 20:37:31 18.9 20 17.3
002F8DE8 2019-04-16 20:03:25 19 20 17.5
002F8DE8 2019-04-16 19:29:19 19 20 17.3
002F8DE8 2019-04-16 18:55:15 19 20 17.3
002F8DE8 2019-04-16 18:21:09 19 20 17.4
002F8DE8 2019-04-16 17:47:03 19 20 17.3
002F8DE8 2019-04-16 16:38:51 19.5 20 17.4
002F8DE8 2019-04-16 16:04:45 19.7 20 17.1
002F8DE8 2019-04-16 15:30:38 19.8 20 17
002F8DE8 2019-04-16 14:56:32 20.1 20 16.4
002F8DE8 2019-04-16 13:48:21 21.4 20 16.5
002F8DE8 2019-04-16 13:14:16 21.3 20 16.5
002F8DE8 2019-04-16 12:40:10 21.3 20 16.9
002F8DE8 2019-04-16 11:32:00 21.2 20 17.2
002F8DE8 2019-04-16 10:57:54 21.2 20 17.3
002F8DE8 2019-04-16 10:23:45 21.2 20 17.5
002F8DE8 2019-04-16 09:49:41 21.2 20 17.7
002F8DE8 2019-04-16 09:15:35 21.2 20 17.7
002F8DE8 2019-04-16 08:41:31 21.2 20 17.7
002F8DE8 2019-04-16 08:07:26 21.2 20 18
002F8DE8 2019-04-16 07:33:20 21.2 20 18.2
002F8DE8 2019-04-16 06:59:12 21.2 20 18.2
002F8DE8 2019-04-16 06:25:07 21.2 20 18.1
002F8DE8 2019-04-16 05:51:02 21.2 20 18
002F8DE8 2019-04-16 05:16:55 21.2 19 17.9
002F8DE8 2019-04-16 04:42:50 21.2 19 17.9
002F8DE8 2019-04-16 04:08:44 21.2 19 17.7
002F8DE8 2019-04-16 03:34:40 21.2 19 17.8
002F8DE8 2019-04-16 03:00:34 21.2 19 17.9
002F8DE8 2019-04-16 02:26:30 21.2 19 17.8
002F8DE8 2019-04-16 01:52:24 21.2 19 18
002F8DE8 2019-04-16 01:18:18 21.2 19 18.2
002F8DE8 2019-04-16 00:44:14 21.2 19 18.3
002F8DE8 2019-04-16 00:10:09 21.3 19 18.3
002F8DE8 2019-04-15 23:36:04 21.3 19 18.6
002F8DE8 2019-04-15 23:01:58 21.3 19 19
002F8DE8 2019-04-15 22:27:56 21.4 19 19.3
002F8DE8 2019-04-15 21:53:49 21.4 19 19.5
002F8DE8 2019-04-15 21:19:43 21.4 19 19.5
002F8DE8 2019-04-15 20:45:37 21.4 19 21
002F8DE8 2019-04-15 20:11:32 21.4 19 21
002F8DE8 2019-04-15 19:37:28 21.4 19 21.2
002F8DE8 2019-04-15 19:03:25 21.4 19 21.6
002F8DE8 2019-04-15 18:29:16 21.4 19 21.7
002F8DE8 2019-04-15 17:55:14 21.4 19 21.7
002F8DE8 2019-04-15 17:21:07 21.6 19 21.6
002F8DE8 2019-04-15 16:47:03 21.6 19 21.8
002F8DE8 2019-04-15 16:12:57 21.6 19 22
002F8DE8 2019-04-15 15:38:51 21.8 19 22.2
002F8DE8 2019-04-15 15:04:46 21.8 19 22.2
002F8DE8 2019-04-15 14:30:38 21.8 19 22.3
002F8DE8 2019-04-15 13:56:32 22 19 22.5
002F8DE8 2019-04-15 13:22:27 22.2 18 22.7
002F8DE8 2019-04-15 12:48:22 22.3 18 22.8
002F8DE8 2019-04-15 12:14:16 22.7 18 22.8
002F8DE8 2019-04-15 11:40:11 22.5 16 22.9
002F8DE8 2019-04-15 11:06:05 22.5 16 23
002F8DE8 2019-04-15 10:32:01 22.4 17 23
002F8DE8 2019-04-15 09:57:55 22.3 17 23.1
002F8DE8 2019-04-15 09:23:50 22.2 17 23.1
002F8DE8 2019-04-15 08:49:45 22.2 17 23.1
002F8DE8 2019-04-15 08:15:41 22.1 17 23
002F8DE8 2019-04-15 07:41:36 22 17 23
002F8DE8 2019-04-15 07:07:31 22 17 23.1
002F8DE8 2019-04-15 06:33:25 22 17 22.3
002F8DE8 2019-04-15 05:59:20 22 17 22.3
002F8DE8 2019-04-15 05:25:15 22 17 22.2
002F8DE8 2019-04-15 04:51:10 21.9 17 21.9
002F8DE8 2019-04-15 04:17:06 22 17 22
002F8DE8 2019-04-15 03:43:01 22 17 22.1
002F8DE8 2019-04-15 03:08:57 22 17 22.1
002F8DE8 2019-04-15 02:34:51 22 17 22.9
002F8DE8 2019-04-15 02:00:47 21.9 17 23.1
002F8DE8 2019-04-15 01:26:41 22 18 23.1
002F8DE8 2019-04-15 00:52:35 22 18 23.2
002F8DE8 2019-04-15 00:18:29 22 18 23.2
002F8DE8 2019-04-14 23:44:24 22 18 23.1
002F8DE8 2019-04-14 23:10:19 22 18 23.1
002F8DE8 2019-04-14 22:36:14 22 18 23
002F8DE8 2019-04-14 22:02:10 22 18 23.2
002F8DE8 2019-04-14 21:28:04 22 18 23.2
002F8DE8 2019-04-14 20:54:00 22 18 23.3
002F8DE8 2019-04-14 20:19:55 22 18 23.2
002F8DE8 2019-04-14 19:45:51 22 18 23.3
002F8DE8 2019-04-14 19:11:46 22 18 23.3
002F8DE8 2019-04-14 18:37:42 22.1 18 23.4
002F8DE8 2019-04-14 18:03:36 22 18 23.4
002F8DE8 2019-04-14 17:29:32 22 18 23.3
002F8DE8 2019-04-14 16:55:27 22 18 23.9
002F8DE8 2019-04-14 16:21:22 22 18 23.9
002F8DE8 2019-04-14 15:47:15 22 18 23.9
002F8DE8 2019-04-14 15:13:11 22 18 24
002F8DE8 2019-04-14 14:39:06 22 18 24
002F8DE8 2019-04-14 14:05:00 22 18 24
002F8DE8 2019-04-14 13:30:57 22 18 24
002F8DE8 2019-04-14 12:56:52 22 18 23.9
002F8DE8 2019-04-14 12:22:47 22 18 23.4
002F8DE8 2019-04-14 11:48:41 22 18 23.3
002F8DE8 2019-04-14 11:14:37 22 18 23.2
002F8DE8 2019-04-14 10:40:31 22 18 23.2
002F8DE8 2019-04-14 10:06:25 22 18 23.2
002F8DE8 2019-04-14 09:32:20 22 18 23.4
002F8DE8 2019-04-14 08:58:14 22 18 23.4
002F8DE8 2019-04-14 08:24:09 22 18 23.4
002F8DE8 2019-04-14 07:50:04 22 18 23.3
002F8DE8 2019-04-14 07:15:59 22 18 23.1
002F8DE8 2019-04-14 06:41:54 22 18 23.1
002F8DE8 2019-04-14 06:07:50 22 18 23.1
002F8DE8 2019-04-14 05:33:45 22 18 22.9
002F8DE8 2019-04-14 04:59:40 22 18 23
002F8DE8 2019-04-14 04:25:35 22 18 22.8
002F8DE8 2019-04-14 03:51:31 22.1 18 22.9
002F8DE8 2019-04-14 03:17:26 22.1 18 22.9
002F8DE8 2019-04-14 02:43:21 22 18 22
002F8DE8 2019-04-14 02:09:17 22.1 18 22
002F8DE8 2019-04-14 01:35:13 22.2 18 22.1
002F8DE8 2019-04-14 01:01:09 22.1 18 21.8
002F8DE8 2019-04-14 00:27:04 22.2 18 22
002F8DE8 2019-04-13 23:53:01 22.2 18 22
002F8DE8 2019-04-13 23:18:57 22.2 18 22.2
002F8DE8 2019-04-13 22:44:53 22.2 18 22.3
002F8DE8 2019-04-13 22:10:49 22.2 18 22.2
002F8DE8 2019-04-13 21:36:45 22.2 18 22.1
002F8DE8 2019-04-13 21:02:40 22.2 18 22.1
002F8DE8 2019-04-13 20:28:36 22.2 18 22
002F8DE8 2019-04-13 19:54:32 22.2 18 22
002F8DE8 2019-04-13 19:20:28 22.3 18 21.7
002F8DE8 2019-04-13 18:46:24 22.3 18 21.6
002F8DE8 2019-04-13 18:12:21 22.3 18 21.5
002F8DE8 2019-04-13 17:38:18 22.3 18 21.6
002F8DE8 2019-04-13 17:04:13 22.5 18 21.6
002F8DE8 2019-04-13 16:30:09 22.5 18 21.6
002F8DE8 2019-04-13 15:56:04 22.5 18 21.6
002F8DE8 2019-04-13 15:21:59 22.5 18 21.8
002F8DE8 2019-04-13 14:47:54 22.5 18 21.7
002F8DE8 2019-04-13 14:13:48 22.5 18 21.9
002F8DE8 2019-04-13 13:39:43 22.5 18 21.9
002F8DE8 2019-04-13 13:05:39 22.5 18 21.8
002F8DE8 2019-04-13 12:31:33 22.5 18 22
002F8DE8 2019-04-13 11:57:28 22.5 18 22
002F8DE8 2019-04-13 11:23:23 22.5 18 21.9
002F8DE8 2019-04-13 10:49:19 22.5 18 21.7
002F8DE8 2019-04-13 10:15:14 22.5 18 21.6
002F8DE8 2019-04-13 09:41:08 22.5 18 21.5
002F8DE8 2019-04-13 09:07:03 22.5 18 21.4
002F8DE8 2019-04-13 08:32:58 22.5 18 21.4
002F8DE8 2019-04-13 07:58:52 22.5 18 21.5
002F8DE8 2019-04-13 07:24:47 22.5 18 21.6
002F8DE8 2019-04-13 06:50:42 22.5 18 21.5
002F8DE8 2019-04-13 06:16:37 22.5 18 21.6
002F8DE8 2019-04-13 05:42:32 22.5 18 21.7
002F8DE8 2019-04-13 05:08:25 22.5 18 21.8
002F8DE8 2019-04-13 04:34:19 22.5 18 22.7
002F8DE8 2019-04-13 04:00:14 22.5 18 23.5
002F8DE8 2019-04-13 03:26:08 22.6 18 23.6
002F8DE8 2019-04-13 02:52:03 22.6 18 23.5
002F8DE8 2019-04-13 02:17:56 22.7 18 23.6
002F8DE8 2019-04-13 01:43:51 22.7 18 23.7
002F8DE8 2019-04-13 01:09:46 22.7 19 23.7
002F8DE8 2019-04-13 00:35:40 22.7 19 23.8
002F8DE8 2019-04-13 00:01:34 22.7 19 23.8
002F8DE8 2019-04-12 23:27:29 22.8 19 23.8
002F8DE8 2019-04-12 22:53:21 22.9 19 23.9
002F8DE8 2019-04-12 22:19:15 22.9 19 23.9
002F8DE8 2019-04-12 21:45:08 22.9 19 24.1
002F8DE8 2019-04-12 21:11:01 23 19 24.3
002F8DE8 2019-04-12 20:36:55 23.1 19 24.6
002F8DE8 2019-04-12 20:02:48 23 19 24.8
002F8DE8 2019-04-12 19:28:41 23.1 19 25
002F8DE8 2019-04-12 18:54:37 23.1 18 25.1
002F8DE8 2019-04-12 18:20:31 23.2 18 25.4
002F8DE8 2019-04-12 17:46:26 23.2 18 25.5
002F8DE8 2019-04-12 17:12:20 23.1 18 25.8
002F8DE8 2019-04-12 16:38:14 23.1 18 26.2
002F8DE8 2019-04-12 16:04:07 23 18 26.6
002F8DE8 2019-04-12 15:30:00 22.9 19 27.1
002F8DE8 2019-04-12 14:55:53 22.7 19 27.8
002F8DE8 2019-04-12 14:21:47 22.5 20 26.6
002F8DE8 2019-04-12 13:47:40 22 21 22.9
002F8DE8 2019-04-12 13:13:33 21.5 23 16.5